Погода в Макарятах

Россия / Костромская область     59°09′08″N   46°38′24″E
темп.,
°C
ветер,
м/с
пор.,
м/с
влажн.,
%
обл.,
%
осадки,
мм/ч
давл.,
гПа
погр.,
м
12 мая, ср
ср1200:00+9всв117484 0.0 103010
03:00+8юв11784 0.0 103010
06:00+12юв12670 0.0 103083
09:00+18юв12460 0.0 1030524
12:00+21ююв12350 0.0 10291017
15:00+22ююв22340 0.0 10281174
18:00+20ю11540 0.0 102712
21:00+14юв11694 0.0 102710
13 мая, чт
чт1300:00+13вюв11770 0.0 102710
03:00+13вюв237739 0.0 102764
06:00+15юв25776 0.0 1027149
09:00+22ююв345618 0.0 1026611
12:00+25ю463784 0.0 10242516
15:00+25ююв46366 0.0 10232550
18:00+22ююв385162 0.0 1021359
21:00+16ююв297086 0.0 1021170
14 мая, пт
пт1400:00+16юв2873100 0.0 1020183
03:00+15ююв3117536 0.0 1019408
06:00+15ю410889 2.1 1018561
09:00+17юз477865 2.3 1019824
12:00+23юз475010 0.0 10181817
15:00+23юз4843100 0.0 10182325
18:00+20юз3860100 0.0 1017411
21:00+15юз26847 0.1 1018119
15 мая, сб
сб1500:00+13зюз22935 0.0 101826
03:00+12юз11928 0.0 101810
06:00+15вюв117990 0.0 1017128
09:00+20ю356297 0.0 1017704
12:00+24ю355043 0.0 10161395
15:00+25ю354738 0.0 10151724
18:00+24юв2662100 0.0 1012218
21:00+19ю5146572 0.1 1012582
16 мая, вс
вс1600:00+17ююз41472100 0.0 1012555
03:00+15ю3108673 0.0 1013250
06:00+17ю3107898 0.0 1013355
09:00+22ююз59607 0.0 1012785
12:00+23юз6125765 0.4 10121743
15:00+23ююз5115914 1.6 10111763
18:00+21юз510520 0.1 10111416
21:00+16зюз310770 0.1 1013320